Flag for Aruba Weather past 2 weeks in Oranjestad, Aruba

Now
81 °F

Passing clouds.


Feels Like: 85 °F
Forecast: 79 / 87 °F
Wind: 17 mph from East

Location: Queen Beatrix Airport - Aruba

Current Time: Dec 23, 2014 at 12:53:21 AM

Latest Report: Dec 23, 2014 at 12:00 AM


Visibility: N/A

Pressure: 29.86 "Hg

Humidity: 74%

Dew point: 72 °F

Location of OranjestadLocation

Historic Weather in Oranjestad — Graph

°F

Oranjestad temperature yesterday

Maximum temperature yesterday: 88 °F (at 11:00 AM)
Minimum temperature yesterday: 81 °F (at 1:00 AM)
Average temperature yesterday: 83 °F

Past Weeks' High & Low Weather Summary

 TemperatureHumidityPressure
High88 °F (Dec 9, 11:00 AM)89% (Dec 8, 1:00 AM)29.98 "Hg (Dec 8, 1:00 AM)
Low75 °F (Dec 19, 10:00 AM)59% (Dec 18, 10:00 AM)29.77 "Hg (Dec 9, 4:00 PM)
Average82 °F75%29.87 "Hg
* Reported Dec 7 11:00 PM — Dec 22 11:00 PM, Oranjestad, Weather by CustomWeather, © 2014

Note: Actual official high and low records may vary slightly from our data, if they occured in-between our weather recording intervals... More about our weather records

Advertising

Oranjestad weather history for previous 24 hours

 ConditionsComfort  
Time TempWeatherWind HumidityBarometerVisibility
11:00 PM
Dec 22
81 °FPassing clouds.18 mph79%29.89 "HgN/A
10:00 PM81 °FPassing clouds.16 mph74%29.89 "HgN/A
9:00 PM82 °FPassing clouds.18 mph70%29.86 "HgN/A
8:00 PM82 °FPassing clouds.20 mph70%29.86 "HgN/A
7:00 PM82 °FPassing clouds.21 mph70%29.83 "HgN/A
6:00 PM82 °FPassing clouds.21 mph74%29.83 "HgN/A
5:00 PM84 °FPassing clouds.22 mph70%29.83 "HgN/A
4:00 PM84 °FScattered clouds.23 mph70%29.83 "HgN/A
3:00 PM88 °FPassing clouds.23 mph62%29.83 "HgN/A
2:00 PM88 °FScattered clouds.24 mph62%29.86 "HgN/A
1:00 PM88 °FScattered clouds.24 mph62%29.89 "HgN/A
12:00 PM88 °FPassing clouds.22 mph59%29.92 "HgN/A
11:00 AM88 °FPassing clouds.24 mph59%29.95 "HgN/A
10:00 AM86 °FPassing clouds.18 mph66%29.95 "HgN/A
9:00 AM86 °FPassing clouds.21 mph66%29.95 "HgN/A
8:00 AM82 °FScattered clouds.12 mph74%29.92 "HgN/A
7:00 AM81 °FPassing clouds.16 mph74%29.89 "HgN/A
5:00 AM81 °FPassing clouds.17 mph74%29.86 "HgN/A
4:00 AM81 °FPassing clouds.20 mph74%29.86 "HgN/A
3:00 AM81 °FPassing clouds.16 mph74%29.86 "HgN/A
2:00 AM81 °FPassing clouds.17 mph74%29.89 "HgN/A
1:00 AM81 °FPassing clouds.16 mph79%29.92 "HgN/A
12:00 AM82 °FPassing clouds.17 mph74%29.92 "HgN/A
Weather by CustomWeather, © 2014

See weather overviewHow to use our weather pages